Belize, Belize

2:55 AM CST on July 24, 2017 (GMT -0600)
Philip S W Goldson International

Weather History for MZBZ - May, 2014

Change the Weather History Date:

Thursday, May 29, 2014

  Actual Average Record
Temperature  
Mean Temperature 84 °F -  
Max Temperature 88 °F 89 °F 91 °F (1997)
Min Temperature 80 °F 77 °F 72 °F (2015)
Cooling Degree Days 19    
Growing Degree Days 34 (Base 50)    
Moisture  
Dew Point 78 °F    
Average Humidity 76    
Maximum Humidity 84    
Minimum Humidity 66    
Precipitation  
Precipitation 0.00 in 0.33 in - ()
Sea Level Pressure  
Sea Level Pressure 29.84 in    
Wind  
Wind Speed 6 mph ()    
Max Wind Speed 12 mph    
Max Gust Speed -    
Visibility 8.3 miles    
Events      
Averages and records for this station are not official NWS values.
T = Trace of Precipitation, MM = Missing Value Source: Averaged Metar Reports

Daily Weather History Graph

Daily Weather History Graph

Search for Another Location

Airport or City:

Trip Planner

Search our weather history database for the weather conditions in past years. The results will help you decide how hot, cold, wet, or windy it might be!

Date:

Astronomy

May. 29, 2014 Rise Set
Actual Time 5:18 AM CST 6:23 PM CST
Civil Twilight 4:54 AM CST 6:47 PM CST
Nautical Twilight 4:26 AM CST 7:15 PM CST
Astronomical Twilight 3:57 AM CST 7:44 PM CST
Moon 6:04 AM CST (5/29) 7:20 PM CST (5/29)
Length of Visible Light 13h 52m
Length of Day
13h 05m
New Moon, 1% of the Moon is Illuminated
May 29
New Moon
Jun 5
First Quarter
Jun 12
Full
Jun 19
Last Quarter
Jun 27
New

Hourly Weather History & Observations

Time (CST) Temp. Heat Index Dew Point Humidity Pressure Visibility Wind Dir Wind Speed Gust Speed Precip Events Conditions
12:00 AM 82 °F - 76 °F 78% 29.88 in 12 mi ESE 5.8 mph - -   Partly Cloudy
3:00 AM 81 °F - 76 °F 80% 29.83 in 12 mi ESE 4.6 mph - -   Mostly Cloudy
5:00 AM 82.4 °F 89.5 °F 75.2 °F 79% 29.83 in 6.2 mi ESE 6.9 mph - N/A   Scattered Clouds
6:00 AM 82 °F - 76 °F 79% 29.85 in 12 mi ESE 5.8 mph - -   Partly Cloudy
6:00 AM 82.4 °F 90.9 °F 77.0 °F 84% 29.84 in 6.2 mi ESE 5.8 mph - N/A   Scattered Clouds
7:00 AM 84.2 °F 94.1 °F 77.0 °F 79% 29.87 in 6.2 mi ESE 11.5 mph - N/A   Mostly Cloudy
8:00 AM 84.2 °F 94.1 °F 77.0 °F 79% 29.88 in 6.2 mi East 11.5 mph - N/A   Mostly Cloudy
9:00 AM 85 °F - 78 °F 73% 29.89 in 12 mi ESE 6.9 mph - -   Mostly Cloudy
9:00 AM 84.2 °F 94.1 °F 77.0 °F 79% 29.89 in 6.2 mi ESE 6.9 mph - N/A   Mostly Cloudy
10:00 AM 86.0 °F 99.3 °F 78.8 °F 79% 29.89 in 6.2 mi ESE 5.8 mph - N/A   Mostly Cloudy
11:00 AM 87.8 °F 102.5 °F 78.8 °F 75% 29.87 in 6.2 mi SSE 6.9 mph - N/A   Mostly Cloudy
12:00 PM 89 °F - 79 °F 66% 29.86 in 12 mi ESE 6.9 mph - -   Mostly Cloudy
12:00 PM 89.6 °F 104.7 °F 78.8 °F 70% 29.85 in 6.2 mi ESE 6.9 mph - N/A   Mostly Cloudy
1:00 PM 87.8 °F 102.5 °F 78.8 °F 75% 29.83 in 6.2 mi ESE 6.9 mph - N/A   Scattered Clouds
2:00 PM 87.8 °F 102.5 °F 78.8 °F 75% 29.82 in 6.2 mi ESE 5.8 mph - N/A   Scattered Clouds
3:00 PM 87 °F - 78 °F 70% 29.81 in 12 mi East 6.9 mph - -   Mostly Cloudy
3:00 PM 87.8 °F 102.5 °F 78.8 °F 75% 29.80 in 6.2 mi East 6.9 mph - N/A   Mostly Cloudy
4:00 PM 86.0 °F 99.3 °F 78.8 °F 79% 29.79 in 6.2 mi East 6.9 mph - N/A   Mostly Cloudy
5:00 PM 86.0 °F 96.9 °F 77.0 °F 74% 29.79 in 6.2 mi East 9.2 mph - N/A   Scattered Clouds
6:00 PM 85 °F - 77 °F 71% 29.81 in 12 mi East 6.9 mph - -   Scattered Clouds
6:00 PM 84.2 °F 94.1 °F 77.0 °F 79% 29.81 in 6.2 mi East 6.9 mph - N/A   Scattered Clouds
9:00 PM 82 °F - 77 °F 82% 29.85 in 12 mi ESE 6.9 mph - -   Scattered Clouds